This is the latest recevied weather packets stored in our database for station/object KD4UFD. If no packets are shown the sender has not sent any weather packets the latest 10 day(s).
| Time | Temp. | Humidity | Pressure | Rain* | Wind** | Luminosity | Snow |
|---|---|---|---|---|---|---|---|
| 1777761743 | 15° C | 50% | 1014.9 hPa | 0 mm | - | 80 W/m² | - |
| 1777761440 | 15° C | 51% | 1014.8 hPa | 0 mm | - | 89 W/m² | - |
| 1777761138 | 15.56° C | 49% | 1014.5 hPa | 0 mm | - | 69 W/m² | - |
| 1777760836 | 15.56° C | 50% | 1014.5 hPa | 0 mm | - | 95 W/m² | - |
| 1777760532 | 16.11° C | 47% | 1014.5 hPa | 0 mm | - | 109 W/m² | - |
| 1777760229 | 16.11° C | 46% | 1014.6 hPa | 0 mm | - | 225 W/m² | - |
| 1777759925 | 15.56° C | 46% | 1014.5 hPa | 0 mm | - | 134 W/m² | - |
| 1777759621 | 16.11° C | 46% | 1014.6 hPa | 0 mm | - | 154 W/m² | - |
| 1777759318 | 16.11° C | 47% | 1014.4 hPa | 0 mm | - | 158 W/m² | - |
| 1777759015 | 16.11° C | 46% | 1014.4 hPa | 0 mm | - | 149 W/m² | - |
| 1777758712 | 16.11° C | 48% | 1014.4 hPa | 0 mm | - | 159 W/m² | - |
| 1777758409 | 16.11° C | 45% | 1014 hPa | 0 mm | - | 203 W/m² | - |
| 1777758106 | 16.11° C | 46% | 1014.2 hPa | 0 mm | - | 274 W/m² | - |
| 1777757803 | 16.67° C | 48% | 1013.9 hPa | 0 mm | - | 154 W/m² | - |
| 1777757500 | 16.67° C | 46% | 1014.1 hPa | 0 mm | - | 465 W/m² | - |
| 1777757199 | 17.22° C | 45% | 1014.1 hPa | 0 mm | - | 173 W/m² | - |
| 1777756897 | 16.11° C | 45% | 1013.9 hPa | 0 mm | - | 466 W/m² | - |
| 1777756592 | 16.67° C | 45% | 1014 hPa | 0 mm | - | 247 W/m² | - |
| 1777756290 | 16.11° C | 47% | 1014 hPa | 0 mm | - | 383 W/m² | - |
| 1777755987 | 16.11° C | 44% | 1014 hPa | 0 mm | - | 274 W/m² | - |
| 1777755684 | 16.11° C | 45% | 1014.1 hPa | 0 mm | - | 322 W/m² | - |
| 1777755380 | 16.11° C | 48% | 1014.1 hPa | 0 mm | - | 337 W/m² | - |
| 1777755077 | 15.56° C | 44% | 1014.1 hPa | 0 mm | - | 203 W/m² | - |
| 1777754774 | 15.56° C | 46% | 1014 hPa | 0 mm | - | 193 W/m² | - |
| 1777754472 | 16.11° C | 45% | 1013.9 hPa | 0 mm | - | 179 W/m² | - |
* Rain latest hour (hover to see other rain measurements)
** Current wind speed in m/s (hover to see current wind gust speed)